FW0959 Weather Reports


time (UTC)temp
F
wind
direction
speed
knots
gust
knots
rain 1hr
in
rain 24hr
in
rain mn
in
humidity
%
barometer
mb
20260906060031 68 22 0.0 0.0 0.00 0.18 0.00 100 1018.9
20260906055031 68 22 0.0 0.0 0.00 0.18 0.00 100 1019.1
20260906053131 68 22 0.0 0.0 0.00 0.18 0.00 99 1019.1
20260906053032 68 22 0.0 0.0 0.00 0.18 0.00 99 1019.2
20260906052031 68 22 0.0 0.0 0.00 0.18 0.00 99 1019.4
20260906051129 68 22 0.0 0.0 0.00 0.18 0.00 99 1019.4
20260906051032 68 22 0.0 0.0 0.00 0.18 0.00 99 1019.4
20260906050031 68 22 0.0 0.0 0.00 0.18 0.00 100 1019.3
20260906045030 68 22 0.0 0.0 0.00 0.18 0.00 100 1019.3
20260906043030 68 22 0.0 0.0 0.00 0.18 0.00 100 1019.6
20260906042030 68 22 0.0 0.0 0.00 0.18 0.00 100 1019.6
20260906041030 69 22 0.0 0.0 0.00 0.18 0.00 99 1019.6
20260906040932 69 22 0.0 0.0 0.00 0.18 0.00 100 1019.5
20260906040830 69 22 0.0 0.0 0.00 0.18 0.00 99 1019.5
20260906035923 69 22 0.0 0.0 0.00 0.18 0.18 100 1019.6
20260906034022 69 22 0.0 0.0 0.00 0.18 0.18 100 1019.8
20260906031123 70 22 0.0 0.0 0.00 0.18 0.18 100 1020.0
20260906030221 70 22 0.0 0.0 0.00 0.18 0.18 100 1020.1
20260906025223 70 22 0.0 0.0 0.00 0.18 0.18 98 1019.9
20260906024223 70 22 0.0 0.0 0.00 0.18 0.18 99 1019.8
20260906023221 70 22 0.0 0.0 0.00 0.18 0.18 99 1019.8
20260906022224 70 22 0.0 0.9 0.00 0.18 0.18 99 1019.6
20260906021223 70 22 0.0 0.0 0.00 0.18 0.18 98 1019.5
20260906020222 70 22 0.9 0.9 0.00 0.18 0.18 99 1019.3
20260906015222 70 22 0.0 0.9 0.00 0.18 0.18 99 1019.5
20260906014223 70 22 0.0 0.0 0.00 0.18 0.18 99 1019.3
20260906013322 71 22 0.0 0.0 0.00 0.18 0.18 98 1019.1
20260906013224 71 22 0.0 0.0 0.00 0.18 0.18 98 1019.1
20260906013122 71 22 0.0 0.0 0.00 0.18 0.18 99 1019.1
20260906012123 71 22 0.0 0.0 0.00 0.18 0.18 99 1019.2
20260906011122 71 22 0.9 1.7 0.00 0.18 0.18 99 1019.0
20260906010122 71 22 0.9 0.9 0.00 0.18 0.18 98 1019.0
20260906005121 71 22 0.9 1.7 0.00 0.18 0.18 99 1019.0
20260906003121 71 22 1.7 1.7 0.00 0.18 0.18 98 1018.7
20260906003021 71 22 1.7 1.7 0.00 0.18 0.18 99 1018.7
20260906002024 71 22 1.7 1.7 0.00 0.18 0.18 98 1018.8
20260906001022 71 22 1.7 1.7 0.00 0.18 0.18 97 1018.7
20260906000923 71 22 1.7 1.7 0.00 0.18 0.18 98 1018.7
20260905235923 71 22 0.9 1.7 0.00 0.18 0.18 97 1018.7
20260905234922 72 22 0.9 1.7 0.00 0.18 0.18 97 1018.4
20260905233921 72 22 0.9 1.7 0.00 0.18 0.18 98 1018.4
20260905232922 72 22 0.9 0.9 0.00 0.18 0.18 98 1018.6
20260905232824 72 22 0.9 0.9 0.00 0.18 0.18 97 1018.6
20260905231823 73 22 0.9 0.9 0.00 0.18 0.18 98 1018.3
20260905230921 73 22 0.9 0.9 0.00 0.18 0.18 99 1018.2
20260905230822 73 22 0.9 0.9 0.00 0.18 0.18 98 1018.2
20260905223822 73 22 0.9 1.7 0.00 0.18 0.18 98 1018.4
20260905220822 72 22 0.9 0.9 0.00 0.18 0.18 99 1018.4
20260905213922 72 22 0.9 0.9 0.00 0.18 0.18 98 1018.7
20260905213822 72 22 0.9 0.9 0.00 0.18 0.18 98 1018.7
20260905212825 72 22 0.9 0.9 0.00 0.18 0.18 98 1018.8
20260905211823 72 22 0.9 0.9 0.00 0.18 0.18 98 1019.1
20260905205922 71 22 0.9 0.9 0.00 0.18 0.18 98 1019.2
20260905204923 72 22 0.9 1.7 0.00 0.18 0.18 97 1019.1
20260905203021 72 22 0.9 0.9 0.00 0.18 0.18 97 1019.1
20260905202023 72 22 1.7 1.7 0.00 0.18 0.18 97 1019.3
20260905200022 71 22 0.0 0.0 0.00 0.18 0.18 97 1019.4
20260905195022 71 22 0.0 0.0 0.00 0.18 0.18 98 1019.5
20260905194023 71 22 0.0 0.9 0.00 0.18 0.18 97 1019.9
20260905192022 71 22 0.9 0.9 0.00 0.18 0.18 97 1020.2
20260905191022 71 22 0.9 0.9 0.01 0.18 0.18 98 1020.0
20260905190121 71 22 0.9 0.9 0.01 0.18 0.18 98 1020.6
20260905190022 71 22 0.9 0.9 0.01 0.18 0.18 97 1020.6
20260905185023 70 22 0.9 0.9 0.01 0.18 0.18 96 1020.7
20260905184121 69 22 0.9 0.9 0.17 0.18 0.18 96 1020.3
20260905184025 69 22 0.9 0.9 0.18 0.18 0.18 96 1020.3
20260905183923 69 22 0.9 0.9 0.18 0.18 0.18 95 1020.3
20260905182922 68 22 0.0 0.9 0.18 0.18 0.18 95 1020.3
20260905181921 68 22 1.7 1.7 0.18 0.18 0.18 93 1020.3
20260905180923 69 22 1.7 2.6 0.17 0.17 0.17 92 1020.8
20260905175924 71 67 0.0 0.0 0.17 0.17 0.17 88 1021.2
20260905175021 74 157 1.7 3.5 0.17 0.17 0.16 84 1021.1
20260905174121 78 155 3.5 13.0 0.01 0.01 0.00 84 1021.4
20260905173122 78 22 0.0 0.0 0.00 0.00 0.00 83 1020.3
20260905172124 79 22 0.0 0.9 0.00 0.00 0.00 84 1020.3
20260905171222 80 22 0.9 1.7 0.00 0.00 0.00 81 1019.9
20260905170222 80 45 1.7 2.6 0.00 0.00 0.00 81 1020.0
20260905165320 80 45 0.0 0.9 0.00 0.00 0.00 84 1019.8
20260905164323 79 45 0.9 1.7 0.00 0.00 0.00 86 1020.1
20260905163323 78 45 0.9 1.7 0.00 0.00 0.00 88 1020.5
20260905162322 78 45 0.9 1.7 0.00 0.00 0.00 90 1020.6
20260905160424 77 45 0.9 1.7 0.00 0.00 0.00 95 1020.7
20260905155520 77 45 0.9 1.7 0.00 0.00 0.00 95 1020.7
20260905155422 77 45 0.9 0.9 0.00 0.00 0.00 96 1020.6
20260905154423 76 45 1.7 1.7 0.00 0.00 0.00 96 1020.8
20260905153423 75 45 0.9 1.7 0.00 0.00 0.00 98 1020.7
20260905151622 74 45 1.7 1.7 0.00 0.00 0.00 99 1020.9
20260905151523 74 45 0.9 1.7 0.00 0.00 0.00 99 1020.8
20260905150522 73 45 0.9 0.9 0.00 0.00 0.00 100 1021.0
20260905145523 72 45 0.0 0.9 0.00 0.00 0.00 99 1020.9
20260905144522 72 45 0.9 1.7 0.00 0.00 0.00 100 1020.8
20260905143523 71 45 0.0 0.0 0.00 0.00 0.00 100 1021.0
20260905142422 70 45 0.0 0.0 0.00 0.00 0.00 100 1021.2
20260905142323 70 45 0.0 0.0 0.00 0.00 0.00 100 1021.2
20260905141322 69 45 0.0 0.0 0.00 0.00 0.00 100 1021.3
20260905135323 68 45 0.0 0.0 0.00 0.00 0.00 100 1021.3
20260905134323 67 45 0.0 0.0 0.00 0.00 0.00 100 1021.4
20260905133323 67 45 0.0 0.0 0.00 0.00 0.00 99 1021.6
20260905132323 67 45 0.0 0.0 0.00 0.00 0.00 99 1021.6
20260905132222 67 45 0.0 0.0 0.00 0.00 0.00 100 1021.6
20260905131220 66 45 0.0 0.0 0.00 0.00 0.00 100 1021.8
20260905130222 66 45 0.0 0.0 0.00 0.00 0.00 99 1021.7
20260905125223 66 45 0.0 0.0 0.00 0.00 0.00 99 1021.7
20260905124221 66 45 0.0 0.0 0.00 0.00 0.00 99 1021.6
20260905124123 66 45 0.0 0.0 0.00 0.00 0.00 99 1021.7
20260905123122 66 45 0.0 0.0 0.00 0.00 0.00 99 1021.6
20260905122023 66 45 0.0 0.0 0.00 0.00 0.00 98 1021.4
20260905121023 66 45 0.0 0.0 0.00 0.00 0.00 99 1021.5
20260905120122 66 45 0.0 0.0 0.00 0.00 0.00 98 1021.2
20260905115124 66 45 0.0 0.0 0.00 0.00 0.00 98 1021.2
20260905113123 66 45 0.0 0.0 0.00 0.00 0.00 99 1021.1
20260905112222 66 45 0.0 0.0 0.00 0.00 0.00 98 1021.0
20260905111223 66 45 0.0 0.0 0.00 0.00 0.00 98 1020.7
20260905110223 66 45 0.0 0.0 0.00 0.00 0.00 99 1020.7
20260905105123 66 45 0.0 0.0 0.00 0.00 0.00 98 1020.6
20260905104123 66 45 0.0 0.0 0.00 0.00 0.00 98 1020.3
20260905103221 66 45 0.0 0.0 0.00 0.00 0.00 98 1020.4
20260905102224 66 45 0.0 0.0 0.00 0.00 0.00 98 1020.2
20260905101222 66 45 0.0 0.0 0.00 0.00 0.00 99 1020.4
20260905100225 66 45 0.0 0.0 0.00 0.00 0.00 98 1020.3
20260905095223 67 45 0.0 0.0 0.00 0.00 0.00 99 1020.3
20260905094224 67 45 0.0 0.0 0.00 0.00 0.00 98 1020.4
20260905093320 67 45 0.0 0.0 0.00 0.00 0.00 98 1020.2
20260905092324 67 45 0.0 0.0 0.00 0.00 0.00 98 1020.2
20260905091323 67 45 0.0 0.0 0.00 0.00 0.00 97 1020.1
20260905085322 67 45 0.0 0.0 0.00 0.00 0.00 98 1020.3
20260905084322 67 45 0.0 0.0 0.00 0.00 0.00 97 1020.4
20260905083322 68 45 0.0 0.0 0.00 0.00 0.00 97 1020.7
20260905082322 68 45 0.0 0.0 0.00 0.00 0.00 97 1020.6
20260905081421 68 45 0.0 0.0 0.00 0.00 0.00 97 1020.8
20260905080422 68 45 0.0 0.0 0.00 0.00 0.00 97 1020.9
20260905075421 68 45 0.0 0.0 0.00 0.00 0.00 96 1021.0
20260905074421 68 45 0.0 0.0 0.00 0.00 0.00 96 1021.0
20260905073424 68 45 0.0 0.0 0.00 0.00 0.00 96 1021.0
20260905072522 68 45 0.0 0.0 0.00 0.00 0.00 96 1021.1
20260905071523 69 45 0.0 0.0 0.00 0.00 0.00 96 1021.2
20260905070523 69 45 0.0 0.0 0.00 0.00 0.00 95 1021.3
20260905070425 69 45 0.0 0.0 0.00 0.00 0.00 95 1021.2
20260905065521 69 45 0.0 0.0 0.00 0.00 0.00 96 1021.4
20260905064524 69 45 0.0 0.0 0.00 0.00 0.00 96 1021.5
20260905064422 69 45 0.0 0.0 0.00 0.00 0.00 96 1021.4
20260905063520 69 45 0.0 0.0 0.00 0.00 0.00 95 1021.6
20260905061621 69 45 0.0 0.0 0.00 0.00 0.00 95 1021.6